Time,TemperatureF,DewpointF,PressureIn,WindDirection,WindDirectionDegrees,WindSpeedMPH,WindSpeedGustMPH,Humidity,HourlyPrecipIn,Conditions,Clouds,dailyrainin,SoftwareType,DateUTC
2013-07-11 00:42:00,70.0,69.0,30.03,SSW,213,0.0,1.0,97,0.01,,,0.05,,2013-07-11 04:42:00,
2013-07-11 01:43:00,69.0,68.0,30.01,SSW,213,0.0,0.0,98,0.02,,,0.07,,2013-07-11 05:43:00,
2013-07-11 01:52:00,69.0,68.0,30.00,SSW,213,0.0,0.0,98,0.02,,,0.07,,2013-07-11 05:52:00,
2013-07-11 02:01:00,69.0,68.0,30.01,SSW,213,0.0,0.0,98,0.03,,,0.08,,2013-07-11 06:01:00,
2013-07-11 02:12:00,69.0,68.0,30.01,SSW,213,0.0,0.0,98,0.04,,,0.09,,2013-07-11 06:12:00,
2013-07-11 02:22:00,69.0,68.0,30.02,SSW,213,0.0,0.0,98,0.05,,,0.10,,2013-07-11 06:22:00,
2013-07-11 02:32:00,69.0,68.0,30.02,SSW,213,0.0,0.0,98,0.05,,,0.11,,2013-07-11 06:32:00,
2013-07-11 02:43:00,70.0,69.0,30.02,SSW,213,0.0,0.0,98,0.05,,,0.12,,2013-07-11 06:43:00,
2013-07-11 02:52:00,70.0,69.0,30.01,SSW,213,0.0,0.0,98,0.06,,,0.13,,2013-07-11 06:52:00,
2013-07-11 03:02:00,69.0,68.0,30.01,SSW,213,0.0,0.0,98,0.05,,,0.13,,2013-07-11 07:02:00,
2013-07-11 03:12:00,69.0,68.0,30.01,SSW,213,0.0,0.0,98,0.04,,,0.13,,2013-07-11 07:12:00,
2013-07-11 03:22:00,69.0,68.0,30.00,SSW,213,0.0,0.0,98,0.04,,,0.14,,2013-07-11 07:22:00,
2013-07-11 03:32:00,69.0,68.0,29.99,SSW,213,0.0,0.0,98,0.03,,,0.14,,2013-07-11 07:32:00,
2013-07-11 03:45:00,69.0,68.0,29.99,SSW,213,0.0,0.0,98,0.02,,,0.14,,2013-07-11 07:45:00,
2013-07-11 03:53:00,69.0,68.0,29.99,SSW,213,0.0,0.0,98,0.01,,,0.14,,2013-07-11 07:53:00,
2013-07-11 04:02:00,69.0,68.0,29.98,SSW,213,0.0,0.0,98,0.01,,,0.14,,2013-07-11 08:02:00,
2013-07-11 04:12:00,69.0,68.0,29.98,SSW,213,0.0,0.0,98,0.01,,,0.14,,2013-07-11 08:12:00,
2013-07-11 04:22:00,69.0,68.0,29.98,SSW,213,0.0,1.0,98,0.00,,,0.14,,2013-07-11 08:22:00,
2013-07-11 04:34:00,69.0,68.0,29.99,SSW,213,0.0,0.0,98,0.00,,,0.14,,2013-07-11 08:34:00,
2013-07-11 04:43:00,69.0,68.0,29.99,SSW,213,0.0,0.0,98,0.00,,,0.14,,2013-07-11 08:43:00,
2013-07-11 05:03:00,69.0,68.0,29.98,SSW,213,0.0,0.0,98,0.00,,,0.14,,2013-07-11 09:03:00,
2013-07-11 05:12:00,69.0,68.0,29.98,SSW,213,0.0,0.0,98,0.00,,,0.14,,2013-07-11 09:12:00,
2013-07-11 05:43:00,69.0,68.0,29.97,SSW,213,0.0,0.0,98,0.00,,,0.14,,2013-07-11 09:43:00,
2013-07-11 05:53:00,69.0,68.0,29.98,SSW,213,0.0,0.0,98,0.00,,,0.14,,2013-07-11 09:53:00,
2013-07-11 06:33:00,69.0,68.0,29.98,SSW,213,0.0,0.0,98,0.00,,,0.14,,2013-07-11 10:33:00,
2013-07-11 06:43:00,69.0,68.0,29.98,SSW,213,0.0,0.0,98,0.00,,,0.14,,2013-07-11 10:43:00,
2013-07-11 06:52:00,69.0,68.0,29.99,SSW,213,0.0,0.0,98,0.00,,,0.14,,2013-07-11 10:52:00,
2013-07-11 07:32:00,69.0,68.0,29.99,SSW,213,0.0,0.0,98,0.00,,,0.14,,2013-07-11 11:32:00,
2013-07-11 07:53:00,69.0,68.0,29.99,SSW,213,0.0,0.0,98,0.00,,,0.14,,2013-07-11 11:53:00,
2013-07-11 08:01:00,69.0,68.0,29.99,SSW,213,0.0,0.0,98,0.00,,,0.14,,2013-07-11 12:01:00,
2013-07-11 08:33:00,70.0,69.0,30.01,SSW,213,0.0,0.0,98,0.00,,,0.14,,2013-07-11 12:33:00,
2013-07-11 08:54:00,70.0,69.0,30.01,West,264,0.0,0.0,98,0.00,,,0.14,,2013-07-11 12:54:00,
2013-07-11 09:02:00,70.0,69.0,30.01,SW,227,0.0,0.0,98,0.00,,,0.14,,2013-07-11 13:02:00,
2013-07-11 09:13:00,70.0,69.0,30.01,SW,227,0.0,0.0,98,0.00,,,0.14,,2013-07-11 13:13:00,
2013-07-11 10:05:00,71.0,70.0,30.02,WSW,247,0.0,0.0,98,0.00,,,0.14,,2013-07-11 14:05:00,
2013-07-11 10:15:00,72.0,71.0,30.02,WSW,247,0.0,0.0,98,0.00,,,0.14,,2013-07-11 14:15:00,
2013-07-11 10:24:00,72.0,71.0,30.02,WSW,255,0.0,0.0,98,0.00,,,0.14,,2013-07-11 14:24:00,
2013-07-11 10:45:00,73.0,72.0,30.01,SW,219,0.0,0.0,98,0.00,,,0.14,,2013-07-11 14:45:00,
2013-07-11 11:13:00,74.0,72.0,30.02,SSW,212,0.0,1.0,95,0.00,,,0.14,,2013-07-11 15:13:00,
2013-07-11 11:37:00,75.0,73.0,30.02,South,185,0.0,1.0,92,0.00,,,0.14,,2013-07-11 15:37:00,
2013-07-11 12:35:00,77.0,71.0,30.02,NNW,341,0.0,2.0,81,0.00,,,0.14,,2013-07-11 16:35:00,
2013-07-11 12:47:00,78.0,73.0,30.02,WNW,300,0.0,1.0,85,0.00,,,0.14,,2013-07-11 16:47:00,
2013-07-11 12:54:00,79.0,72.0,30.01,West,265,0.0,2.0,79,0.00,,,0.14,,2013-07-11 16:54:00,
2013-07-11 13:38:00,78.0,72.0,30.00,West,261,0.0,2.0,81,0.00,,,0.14,,2013-07-11 17:38:00,
2013-07-11 13:46:00,78.0,72.0,30.00,WNW,286,0.0,0.0,83,0.00,,,0.14,,2013-07-11 17:46:00,
2013-07-11 13:52:00,78.0,72.0,29.99,WNW,286,0.0,0.0,82,0.00,,,0.14,,2013-07-11 17:52:00,
2013-07-11 14:05:00,79.0,74.0,29.99,WNW,302,0.0,1.0,84,0.00,,,0.14,,2013-07-11 18:05:00,
2013-07-11 14:45:00,79.0,74.0,29.99,South,188,0.0,0.0,85,0.00,,,0.14,,2013-07-11 18:45:00,
2013-07-11 15:56:00,84.0,74.0,29.96,WSW,253,0.0,2.0,73,0.00,,,0.14,,2013-07-11 19:56:00,
2013-07-11 16:37:00,85.0,74.0,29.96,SSW,198,0.0,3.0,69,0.00,,,0.14,,2013-07-11 20:37:00,
2013-07-11 16:53:00,83.0,76.0,29.94,SSW,209,0.0,1.0,79,0.00,,,0.14,,2013-07-11 20:53:00,
2013-07-11 17:15:00,83.0,74.0,29.94,SSW,209,0.0,1.0,75,0.00,,,0.14,,2013-07-11 21:15:00,
2013-07-11 17:45:00,82.0,74.0,29.93,SSW,209,0.0,0.0,76,0.00,,,0.14,,2013-07-11 21:45:00,
2013-07-11 18:05:00,81.0,74.0,29.93,SSW,209,0.0,0.0,80,0.00,,,0.14,,2013-07-11 22:05:00,
2013-07-11 18:16:00,80.0,74.0,29.93,SSW,209,0.0,0.0,81,0.00,,,0.14,,2013-07-11 22:16:00,
2013-07-11 18:46:00,80.0,75.0,29.93,SSW,209,0.0,0.0,84,0.00,,,0.14,,2013-07-11 22:46:00,
2013-07-11 18:54:00,81.0,75.0,29.92,SSW,209,0.0,0.0,81,0.00,,,0.14,,2013-07-11 22:54:00,
2013-07-11 19:06:00,82.0,73.0,29.92,SW,227,0.0,2.0,75,0.00,,,0.14,,2013-07-11 23:06:00,
2013-07-11 19:13:00,84.0,73.0,29.92,WSW,247,0.0,3.0,70,0.00,,,0.14,,2013-07-11 23:13:00,
2013-07-11 19:35:00,82.0,73.0,29.91,WSW,248,1.0,2.0,75,0.00,,,0.14,,2013-07-11 23:35:00,
2013-07-11 19:46:00,81.0,74.0,29.92,WSW,248,0.0,1.0,80,0.00,,,0.14,,2013-07-11 23:46:00,
2013-07-11 19:55:00,80.0,74.0,29.92,SSE,148,0.0,0.0,82,0.00,,,0.14,,2013-07-11 23:55:00,
2013-07-11 20:14:00,79.0,74.0,29.91,SW,228,0.0,0.0,85,0.00,,,0.14,,2013-07-12 00:14:00,
2013-07-11 20:25:00,80.0,75.0,29.91,SSE,164,0.0,0.0,84,0.00,,,0.14,,2013-07-12 00:25:00,
2013-07-11 20:44:00,79.0,74.0,29.91,NE,46,0.0,0.0,84,0.00,,,0.14,,2013-07-12 00:44:00,
2013-07-11 20:55:00,79.0,74.0,29.91,NE,46,0.0,0.0,86,0.00,,,0.14,,2013-07-12 00:55:00,
2013-07-11 21:05:00,78.0,74.0,29.91,NE,46,0.0,0.0,87,0.00,,,0.14,,2013-07-12 01:05:00,
2013-07-11 21:13:00,78.0,74.0,29.91,NE,46,0.0,0.0,87,0.00,,,0.14,,2013-07-12 01:13:00,
2013-07-11 21:26:00,78.0,74.0,29.92,NE,46,0.0,0.0,88,0.00,,,0.13,,2013-07-12 01:26:00,
2013-07-11 21:46:00,78.0,74.0,29.91,NE,46,0.0,0.0,89,0.00,,,0.13,,2013-07-12 01:46:00,
2013-07-11 22:25:00,77.0,74.0,29.93,NE,46,0.0,0.0,91,0.00,,,0.10,,2013-07-12 02:25:00,
2013-07-11 22:53:00,77.0,75.0,29.94,NE,46,0.0,0.0,93,0.00,,,0.10,,2013-07-12 02:53:00,
2013-07-11 23:37:00,76.0,74.0,29.94,NE,46,0.0,0.0,94,0.00,,,0.10,,2013-07-12 03:37:00,
2013-07-11 23:44:00,76.0,74.0,29.94,NE,46,0.0,0.0,95,0.00,,,0.10,,2013-07-12 03:44:00,
2013-07-11 23:54:00,75.0,73.0,29.94,NE,46,0.0,0.0,95,0.00,,,0.10,,2013-07-12 03:54:00,